Location: *
(31.2983°S, 151.4094°E)
Time: 15:37:23
(UTC+00:00)

USA 238 DEB - Pass Details

Date: 25 August 2019
Orbit: 1027 x 1186 km, 63.4° (Epoch: 19 October)

Event Time Altitude Azimuth Distance (km) Brightness Sun altitude
Exits shadow 18:58:41 - 213° (SSW) 3,410 6.0 -17.8°
Reaches altitude 10° 19:00:04 10° 213° (SSW) 2,911 5.6 -17.5°
Maximum altitude 19:06:53 74° 296° (WNW) 1,089 3.6 -16.0°
Drops below altitude 10° 19:13:30 10° 20° (NNE) 2,817 6.2 -14.6°
Sets 19:16:04 0° 22° (NNE) 3,759 6.9 -14.1°
